Regional Weather Roundup
Issued by NWS

Home | Current Version | Previous Version | Text Only | Print | Product List | Glossary Off
Versions: 1 2 3 4 5 6 7 8 9 10 11 12 13 14 15 16 17 18 19 20 21 22 23 24 25 26 27 28 29 30 31 32 33 34 35 36 37 38 39 40 41 42 43 44 45 46 47 48 49 50

000
ASUS43 KMPX 021910
RWRMN
WEATHER ROUNDUP FOR MINNESOTA
NATIONAL WEATHER SERVICE TWIN CITIES/CHANHASSEN MN
200 PM CDT SUN AUG 02 2015


NOTE: "FAIR" INDICATES FEW OR NO CLOUDS BELOW 12,000 FEET WITH NO
SIGNIFICANT WEATHER AND/OR OBSTRUCTIONS TO VISIBILITY. N/A MEANS
CURRENT SKY AND/OR WEATHER CONDITIONS ARE NOT AVAILABLE.

MNZ060>063-068>070-022000-
   Twin Cities Metro

CITY           SKY/WX    TMP DP  RH WIND       PRES   REMARKS
TWIN CITIES    MOSUNNY   84  68  58 NW21      29.68R
ST PAUL        MOSUNNY   81  68  64 NW16      29.68R
CRYSTAL        PTSUNNY   82  67  60 N10G18    29.68R
BLAINE         PTSUNNY   82  66  57 N14G20    29.69R
LAKEVILLE      SUNNY     82  66  57 NW15G23   29.68R
EDEN PRAIRIE   MOSUNNY   84  68  58 NW20G25   29.68R
SOUTH ST PAUL  PTSUNNY   83  65  55 NW18      29.67R
LAKE ELMO      PTSUNNY   79  68  69 NW14G20   29.69R
$$
MNZ001>005-007-008-013>017-022>024-027-028-022000-
   Northwest Minnesota

CITY           SKY/WX    TMP DP  RH WIND       PRES   REMARKS
BEMIDJI        PTSUNNY   70  49  46 NW17G23   29.78R
HALLOCK        MOSUNNY   73  43  33 NW20G28   29.80S
ROSEAU         MOSUNNY   73  54  49 NW15G23   29.77R
WARROAD        MOSUNNY   70  50  49 W12G23    29.76R
THIEF RVR FALL MOSUNNY   72  46  40 NW14G25   29.81S
CROOKSTON      MOSUNNY   73  52  46 N15G23    29.82R
FOSSTON        MOSUNNY   72  46  40 NW16G24   29.82R
DETROIT LAKES  MOSUNNY   73  54  49 NW16G25   29.83R
MOORHEAD       SUNNY     73  57  56 N13G22    29.84R
PARK RAPIDS    MOSUNNY   78  53  41 NW22G28   29.77R
MAHNOMEN       MOCLDY    71  52  52 NW15G21   29.82R
$$
MNZ006-009>011-018-025>026-022000-
   North Central Minnesota

CITY           SKY/WX    TMP DP  RH WIND       PRES   REMARKS
BAUDETTE       MOSUNNY   73  46  38 NW14G28   29.74R
FLAG ISLAND    SUNNY     70  43  37 NW22      29.71S
INTL FALLS     MOSUNNY   71  47  42 W21G28    29.70R
WASKISH        MOSUNNY   72  52  49 NW14G20   29.75S
BIG FORK       MOSUNNY   72  54  53 NW3G16    29.72S
LONGVILLE      MOSUNNY   75  54  46 NW10G21   29.75R
GRAND RAPIDS   PTSUNNY   73  54  49 NW17G25   29.72R
CRANE LAKE     MOSUNNY   70  46  43 NW9G18    29.69S
ORR            CLOUDY    66  52  59 NW6       29.67S
COOK           MOSUNNY   68  57  68 NW5       29.70R
WALKER         FAIR      73  52  48 NW14G29   29.76R
$$
MNZ012-019>021-037-022000-
   Northeast Minnesota

CITY           SKY/WX    TMP DP  RH WIND       PRES   REMARKS
DULUTH         PTSUNNY   74  57  55 NW15      29.68R
ELY            PTSUNNY   70  52  52 NW10G17   29.67R
HIBBING        LGT RAIN  69  55  60 NW18G26   29.70R
EVELETH        LGT RAIN  70  54  56 NW12G20   29.70R
DULUTH HARBOR  PTSUNNY   75  63  64 NW9       29.66S
TWO HARBORS    MOSUNNY   79  63  57 NW5       29.63S
SILVER BAY     PTSUNNY   75  54  46 W8        29.63R
GRAND MARAIS     N/A     57  51  80 SW7       29.60R
G MARAIS ARPRT PTSUNNY   66  48  52 W7        29.65R
$$
MNZ029>031-032-039>041-046>048-054>057-064-022000-
   West Central Minnesota

CITY           SKY/WX    TMP DP  RH WIND       PRES   REMARKS
FERGUS FALLS   SUNNY     75  57  53 NW15G23   29.81R
WHEATON        MOSUNNY   75  57  53 NW16G24   29.85R
MORRIS         SUNNY     79  61  53 NW21G26   29.80R
ALEXANDRIA     PTSUNNY   78  58  49 N15G24    29.81R
ELBOW LAKE     PTSUNNY   74  59  58 N16G24    29.81R
WADENA         MOSUNNY   75  55  50 NW13G23   29.78R
GLENWOOD       MOSUNNY   79  61  53 NW17      29.80R
APPLETON       SUNNY     81  57  44 NW20G26   29.80R
BENSON         MOSUNNY   81  59  47 N12G24    29.79R
ORTONVILLE     SUNNY     79  59  50 N17G23    29.83R
MADISON        SUNNY     79  57  47 NW18G25   29.82R
WILLMAR        FAIR      82  63  51 NW21      29.78R
$$
MNZ033>034-036-042>043-049>051-058-059-022000-
   Central Minnesota

CITY           SKY/WX    TMP DP  RH WIND       PRES   REMARKS
ST CLOUD       PTSUNNY   83  61  47 NW18      29.72R
SAUK CENTRE    FAIR      77  58  52 NW20      29.77R
PAYNESVILLE    MOSUNNY   78  60  53 W14G22    29.77R
AITKIN         MOSUNNY   77  57  50 NW10G20   29.71S
PINE RIVER     PTSUNNY   75  55  50 NW10G21   29.78R
BRAINERD       MOSUNNY   77  55  46 NW15      29.74R
STAPLES        MOSUNNY   79  54  41 NW17G25   29.76R
LONG PRAIRIE   PTSUNNY   77  61  57 W14G22    29.78R
LITTLE FALLS   MOSUNNY   77  55  47 NW8       29.74S
LITCHFIELD     SUNNY     81  70  69 NW14G21   29.75R
BUFFALO        SUNNY     82  60  48 N10       29.73R
MAPLE LAKE     SUNNY     81  64  57 N9        29.73R
$$
MNZ037-044-045-052-053-022000-
   East Central Minnesota

CITY           SKY/WX    TMP DP  RH WIND       PRES   REMARKS
PRINCETON      MOSUNNY   81  63  54 NW12G20   29.72R
MORA           MOSUNNY   75  59  57 NW14G20   29.72R
CAMBRIDGE      PTSUNNY   82  63  51 NW9       29.69R
RUSH CITY      MOSUNNY   78  60  52 NW8       29.70R
MOOSE LAKE     PTSUNNY   75  55  50 NW9G21    29.69R
HINCKLEY       FAIR      79  63  57 NW13      29.69R
CLOQUET        MOSUNNY   75  55  50 NW15G23   29.69S
MCGREGOR       PTSUNNY   73  55  53 NW16      29.71F
$$
MNZ071>073-080-081-089-090-097-098-022000-
   Southwest Minnesota

CITY           SKY/WX    TMP DP  RH WIND       PRES   REMARKS
MONTEVIDEO     SUNNY     82  63  51 N15G21    29.82R
GRANITE FALLS  SUNNY     81  63  54 W15G23    29.81R
CANBY          SUNNY     80  62  54 NW12      29.83S
MARSHALL       SUNNY     81  61  50 N17G24    29.82S
REDWOOD FALLS  SUNNY     85  62  46 NW14G25   29.76R
OLIVIA         SUNNY     79  59  50 NW17G28   29.76R
PIPESTONE      SUNNY     82  63  51 N12G20    29.85R
WINDOM         SUNNY     82  66  57 NW14G21   29.80R
WORTHINGTON    SUNNY     84  64  51 N16       29.82R
JACKSON        SUNNY     86  64  48 NW17G23   29.80R
TRACY          SUNNY     81  66  61 N15       29.82R
SLAYTON        SUNNY     82  64  55 NW13G24   29.84R
$$
MNZ065>067-074>077-082>085-091>093-022000-
   South Central Minnesota

CITY           SKY/WX    TMP DP  RH WIND       PRES   REMARKS
MANKATO        SUNNY     84  66  54 NW16G23   29.72R
NEW ULM        SUNNY     84  64  51 NW21      29.74R
ST JAMES       SUNNY     84  70  61 NW18G24   29.76R
FAIRMONT       SUNNY     86  63  45 NW15G24   29.76R
GLENCOE        MOSUNNY   83  71  66 NW13G22   29.72R
FARIBAULT      SUNNY     82  68  61 W14G24    29.71R
OWATONNA       SUNNY     84  64  51 W17G28    29.71R
WASECA         SUNNY     82  64  54 NW14G21   29.74R
ALBERT LEA     SUNNY     84  66  54 W10G20    29.72R
$$
MNZ078>079-086>088-094>096-022000-
   Southeast Minnesota

CITY           SKY/WX    TMP DP  RH WIND       PRES   REMARKS
ROCHESTER      SUNNY     83  68  60 W20G33    29.70R
RED WING       MOSUNNY   86  64  48 NW12G21   29.64R
STANTON        SUNNY     84  67  56 NW15G22   29.67R
DODGE CENTER   SUNNY     82  64  54 W22       29.71R
WINONA         SUNNY     90  64  43 W16G23    29.62R HX  91
AUSTIN         SUNNY     88  64  45 W14       29.71R
PRESTON        SUNNY     86  68  55 W17G25    29.70R
$$
ABBREVIATIONS USED IN REMARKS
   TC - TEMPERATURES IN CELSIUS
  WCI - WIND CHILL INDEX
   HX - HEAT INDEX
  VSB - VISIBILITY
$$


USA.gov is the U.S. government's official web portal to all federal, state and local government web resources and services.